Hettinger, ND

10:24 PM MDT on September 30, 2016 (GMT -0600)
Hettinger Municipal

Weather History for KHEI - September, 2013

Change the Weather History Date:

Saturday, September 28, 2013

  Actual Average Record
Temperature  
Mean Temperature 51 °F -  
Max Temperature 64 °F 65 °F 85 °F (2010)
Min Temperature 37 °F 36 °F 24 °F (1999)
Degree Days  
Heating Degree Days 14 15  
Month to date heating degree days 128 252  
Since 1 July heating degree days 147 342  
Cooling Degree Days 0 0  
Month to date cooling degree days 63 24  
Year to date cooling degree days 310 373  
Moisture  
Dew Point 37 °F    
Average Humidity 67    
Maximum Humidity 92    
Minimum Humidity 36    
Precipitation  
Precipitation 0.00 in 0.03 in 0.14 in (2015)
Month to date precipitation 3.38 1.58  
Year to date precipitation 19.98 13.87  
Sea Level Pressure  
Sea Level Pressure 29.87 in    
Wind  
Wind Speed 11 mph (West)    
Max Wind Speed 28 mph    
Max Gust Speed 33 mph    
Visibility 10 miles    
Events      
T = Trace of Precipitation, MM = Missing Value Source: NWS Daily Summary

Daily Weather History Graph

Daily Weather History Graph

Search for Another Location

Airport or City:

Trip Planner

Search our weather history database for the weather conditions in past years. The results will help you decide how hot, cold, wet, or windy it might be!

Date:

Astronomy

Sep. 28, 2013 Rise Set
Actual Time 6:45 AM MDT 6:35 PM MDT
Civil Twilight 6:15 AM MDT 7:05 PM MDT
Nautical Twilight 5:40 AM MDT 7:40 PM MDT
Astronomical Twilight 5:05 AM MDT 8:15 PM MDT
Moon 12:18 AM MDT (9/28) 3:11 PM MDT (9/28)
Length of Visible Light 12h 49m
Length of Day
11h 50m
Waning Crescent, 35% of the Moon is Illuminated
Sep 28
Waning Crescent
Oct 4
New
Oct 11
First Quarter
Oct 18
Full
Oct 26
Last Quarter

Hourly Weather History & Observations

Time (MDT) Temp. Windchill Dew Point Humidity Pressure Visibility Wind Dir Wind Speed Gust Speed Precip Events Conditions
12:53 AM 43.0 °F 38.8 °F 39.0 °F 86% 29.89 in 10.0 mi West 6.9 mph - N/A   Overcast
1:53 AM 42.1 °F 38.4 °F 39.9 °F 92% 29.88 in 10.0 mi West 5.8 mph - N/A   Overcast
2:53 AM 43.0 °F 38.8 °F 39.0 °F 86% 29.87 in 10.0 mi West 6.9 mph - N/A   Overcast
3:53 AM 43.0 °F 38.8 °F 39.0 °F 86% 29.88 in 10.0 mi West 6.9 mph - N/A   Overcast
4:53 AM 42.1 °F 36.6 °F 39.0 °F 89% 29.88 in 10.0 mi West 9.2 mph - N/A   Overcast
5:53 AM 37.9 °F 33.5 °F 36.0 °F 93% 29.88 in 10.0 mi West 5.8 mph - N/A   Clear
6:53 AM 37.9 °F 32.1 °F 36.0 °F 93% 29.89 in 10.0 mi West 8.1 mph - N/A   Clear
7:53 AM 42.1 °F 36.1 °F 37.0 °F 82% 29.88 in 10.0 mi West 10.4 mph - N/A   Clear
8:53 AM 46.0 °F 39.0 °F 37.9 °F 73% 29.88 in 10.0 mi West 17.3 mph 23.0 mph N/A   Clear
9:53 AM 51.1 °F - 37.9 °F 61% 29.88 in 10.0 mi West 15.0 mph 23.0 mph N/A   Mostly Cloudy
10:53 AM 54.0 °F - 39.0 °F 57% 29.87 in 10.0 mi West 18.4 mph 26.5 mph N/A   Partly Cloudy
11:53 AM 57.0 °F - 37.9 °F 49% 29.86 in 10.0 mi West 18.4 mph - N/A   Clear
12:53 PM 59.0 °F - 37.0 °F 44% 29.85 in 10.0 mi West 19.6 mph 27.6 mph N/A   Clear
1:53 PM 62.1 °F - 36.0 °F 38% 29.84 in 10.0 mi West 24.2 mph 29.9 mph N/A   Partly Cloudy
2:53 PM 63.0 °F - 36.0 °F 37% 29.83 in 10.0 mi West 23.0 mph 32.2 mph N/A   Partly Cloudy
3:53 PM 60.1 °F - 35.1 °F 39% 29.84 in 10.0 mi West 16.1 mph 29.9 mph N/A   Mostly Cloudy
4:53 PM 62.1 °F - 36.0 °F 38% 29.85 in 10.0 mi West 18.4 mph 25.3 mph N/A   Mostly Cloudy
5:53 PM 59.0 °F - 37.0 °F 44% 29.87 in 10.0 mi West 13.8 mph - N/A   Clear
6:53 PM 50.0 °F - 37.9 °F 63% 29.89 in 10.0 mi WSW 6.9 mph - N/A   Clear
7:53 PM 46.0 °F - 37.0 °F 71% 29.89 in 10.0 mi Calm Calm - N/A   Clear
8:53 PM 46.0 °F - 37.0 °F 71% 29.88 in 10.0 mi Calm Calm - N/A   Clear
9:53 PM 45.0 °F - 37.0 °F 74% 29.88 in 10.0 mi Calm Calm - N/A   Clear
10:53 PM 46.0 °F - 37.9 °F 73% 29.86 in 10.0 mi Calm Calm - N/A   Clear
11:53 PM 46.9 °F - 37.9 °F 71% 29.85 in 10.0 mi Variable 3.5 mph - N/A   Clear